BGBWCYYR

Guest
Details From BGBW - Narsarsuaq
To CYYR - Goose Bay
Flight Number -
Tags decoded
Created
Modified
Stats Distance 707 nm / 1,310 km
Max Altitude 0 ft / 0 m
Waypoints 5
Social Downloads 3
Likes 0
Share VATSIM

Download

Looking for another format? Having issues loading an existing format? Contact us
Advertisement - Login to hide

Notes

Requested: BGBW NA SI CUDDY HO KEMSI CYYR Unmatched points: KEMSI

Route

BGBW NA SI HO CYYR

ID Type Via Altitude Latitude Longitude Leg Dist Tot Dist Heading (true) Name
O BGBW APT - 0 ft / 0 m 61.16052˚ -45.42598˚ - 0 nm - Narsarsuaq
NA NDB - 0 ft / 0 m 61.17074˚ -45.41295˚ 0 nm 0 nm 32° / 32° NARSARSUAQ NDB
SI NDB - 0 ft / 0 m 60.68167˚ -46.59611˚ 45 nm 46 nm 230° / 229° SIMIUTAQ NDB
HO NDB - 0 ft / 0 m 55.45750˚ -60.20917˚ 532 nm 578 nm 240° / 228° HOPEDALE NDB
O CYYR APT - 0 ft / 0 m 53.31882˚ -60.42389˚ 128 nm 707 nm 183° / 183° Goose Bay

Altitude Profile

Advertisement - Login to hide

Weather


0- 5 10 15 20 25 30 35+ Temperature / ° C

Clouds and Precipitation
Forecast for 2018-05-25 06:00 UTC. Updated 38 minutes ago

Ground ~20,000 ft ~40,000 ft Winds

BGBW

Details ICAO BGBW (UAK)
Name Narsarsuaq
Region Greenland
Timezone America/Godthab (UTC-2.0)
Stats Elevation 112 ft / 34 m (AMSL)
Location 61.160516° -45.425976°
Runways 1
Magnetic Variation 22.773° W

METAR

BGBW 250450Z 22002KT 9999 FEW075 SCT180 M01/M04 Q1006

Decode

TAF

Not found

Departure Runways

ID Width Length Bearing (true) Bearing (mag) Surface Threshold Offset Overrun Length
07 148 ft / 45 m 5,921 ft / 1,805 m 40.57° 63.34° Concrete 0 ft / 0 m 0 ft / 0 m
25 148 ft / 45 m 5,921 ft / 1,805 m 220.58° 243.35° Concrete 0 ft / 0 m 279 ft / 85 m

CYYR

Details ICAO CYYR (YYR)
Name Goose Bay
Region Canada
Timezone America/Goose_Bay (UTC-3.0)
Stats Elevation 160 ft / 49 m (AMSL)
Location 53.318820° -60.423890°
Runways 2
Magnetic Variation 20.868° W

METAR

CYYR 250500Z 00000KT 15SM SKC M03/M09 A2984 RMK SLP110

Decode

TAF

TAF CYYR 250530Z 2506/2606 VRB03KT P6SM SKC FM250800 07005KT P6SM BKN050 TEMPO 2508/2514 P6SM -SHSN OVC050 FM251400 10008KT P6SM SCT015 OVC030 TEMPO 2514/2518 4SM -RASN BR OVC015 FM251800 10008KT 5SM -SHRA BR SCT006 OVC012 FM252200 06008KT P6SM SCT012 OVC030 FM260200 02005KT P6SM SCT030 BKN100 RMK NXT FCST BY 251200Z

Decode

Destination Runways

ID Width Length Bearing (true) Bearing (mag) Surface Threshold Offset Overrun Length
08 209 ft / 64 m 11,055 ft / 3,369 m 54.70° 75.57° Asphalt 0 ft / 0 m 1,000 ft / 305 m
16 200 ft / 61 m 9,515 ft / 2,900 m 132.96° 153.83° Asphalt 0 ft / 0 m 0 ft / 0 m
26 209 ft / 64 m 11,055 ft / 3,369 m 234.73° 255.60° Asphalt 0 ft / 0 m 1,000 ft / 305 m
34 200 ft / 61 m 9,515 ft / 2,900 m 312.99° 333.86° Asphalt 0 ft / 0 m 500 ft / 152 m

Popular Alternatives